Wind_Speed
36 34 34 33 32 32 31 29 28 25 23 20 20 19 19 18 18 18 17 16 16 17 16 15 16 15 15 15 15 16 16 17 17 17 17 18 17 17 16 16 16 16 16 15
37 36 35 35 34 33 32 31 30 27 26 23 21 20 20 19 19 18 18 18 18 18 18 17 16 16 16 16 16 16 17 17 18 18 18 18 18 18 19 18 17 17 17 18
38 36 36 38 36 35 34 33 32 30 27 25 24 23 22 21 20 19 19 19 20 20 19 19 18 17 17 18 17 17 18 18 19 19 19 20 20 20 20 20 19 18 19 19
39 37 39 37 35 36 35 34 34 33 31 29 27 26 24 23 22 21 21 21 21 20 21 21 20 19 19 20 20 20 21 21 21 21 21 21 21 21 21 20 19 19 19 19
40 39 39 38 36 36 36 36 35 35 33 32 30 29 27 25 24 24 23 23 23 23 23 22 22 22 22 22 22 23 23 23 23 23 24 23 22 23 22 21 21 21 21 20
41 41 40 39 37 36 36 36 36 36 34 33 32 31 28 27 26 26 26 27 27 26 26 25 24 24 25 26 25 25 25 25 25 25 25 25 25 25 25 24 23 23 23 23
43 43 42 40 39 38 38 38 36 37 36 35 34 33 32 31 29 29 28 28 28 28 29 28 27 28 29 28 28 28 27 28 28 28 28 27 27 27 27 26 25 25 25 25
46 45 44 43 42 41 40 39 39 38 37 36 35 35 34 33 32 31 31 31 31 30 31 32 31 31 32 32 31 31 30 31 30 31 31 31 30 29 28 28 27 27 27 27
49 47 46 45 45 44 43 41 40 39 38 37 36 36 35 35 35 35 35 34 34 34 34 35 35 35 36 35 35 35 34 34 34 34 34 34 33 32 29 28 29 29 29 29
51 50 49 47 46 45 45 44 43 42 40 39 39 38 38 38 38 38 38 37 37 37 37 37 38 38 38 39 40 38 37 37 37 36 35 35 35 33 31 30 31 31 31 31
50 51 50 49 48 47 46 46 45 43 42 42 41 41 41 40 40 40 40 39 40 40 40 40 41 41 42 42 42 41 40 39 38 37 36 35 34 33 32 32 33 33 32 33
49 49 49 49 48 46 46 45 44 43 43 42 42 42 42 42 42 41 41 41 41 41 41 41 42 42 43 43 43 43 41 40 39 38 37 36 34 34 34 34 35 35 35 36
47 47 47 48 47 46 45 44 43 43 43 42 42 42 41 42 43 42 42 42 42 42 42 43 42 43 43 42 43 43 41 39 39 38 37 36 34 35 35 35 36 37 37 38
45 45 46 45 45 45 45 45 44 43 42 42 41 41 41 41 42 42 42 42 43 43 43 41 41 42 43 43 42 41 41 39 39 37 36 35 35 35 36 36 37 38 38 38
42 42 43 43 43 43 43 44 44 44 43 42 42 41 41 40 40 40 41 41 41 42 41 41 41 41 41 41 41 41 41 40 39 38 37 38 37 37 37 38 38 39 39 39
40 40 41 41 42 43 42 42 42 42 41 40 41 41 40 39 40 41 41 41 41 40 40 39 39 39 39 40 40 40 39 39 38 38 37 38 38 38 38 38 38 39 39 39
38 39 39 39 39 39 39 40 40 40 39 38 38 38 38 38 39 39 39 39 40 40 39 39 39 38 39 39 39 39 38 38 38 38 39 38 38 39 39 39 39 38 38 38
36 36 36 36 37 37 37 37 38 38 39 38 35 35 36 38 39 38 38 38 39 39 38 38 38 38 39 39 39 39 39 38 38 39 38 39 39 39 39 39 39 39 38 38
34 35 35 35 36 36 37 36 36 36 36 36 36 36 36 36 37 37 36 37 37 38 38 38 38 39 39 38 38 38 38 37 37 37 38 38 38 38 38 38 38 38 38 37
30 31 32 32 33 33 34 34 34 35 35 35 35 34 35 35 35 36 36 36 36 36 37 36 37 37 37 36 36 36 36 36 37 37 37 37 37 37 37 38 38 37 37 37
27 28 29 30 30 31 31 32 32 32 32 32 32 32 33 33 33 33 34 34 33 33 33 32 32 32 33 33 34 34 35 35 35 35 35 35 36 36 37 37 36 36 36 36
24 25 26 27 27 28 29 29 30 30 30 31 31 30 31 31 30 30 31 31 31 31 31 31 31 31 31 32 32 32 32 32 33 33 33 34 35 35 34 34 34 34 34 34
21 22 23 24 24 25 25 26 26 27 27 28 28 27 28 28 28 28 28 28 28 29 29 29 29 30 30 30 29 29 29 30 31 31 32 32 32 32 32 32 32 33 33 33
17 19 20 21 21 22 23 24 24 24 24 24 24 24 24 24 25 25 26 27 27 27 27 27 27 28 28 28 28 28 28 29 29 30 30 31 31 31 31 31 32 32 32 33
15 16 17 18 19 19 20 20 20 21 21 21 21 21 22 22 22 23 24 25 25 25 25 25 25 25 25 25 26 27 28 28 29 29 30 30 30 30 30 31 31 32 32 32
12 12 12 13 14 15 16 17 17 17 17 17 18 19 19 20 20 20 21 22 22 23 23 24 23 23 23 24 25 25 27 27 28 28 29 29 30 30 31 31 31 32 33 33
8 9 9 10 11 12 12 13 13 13 14 15 16 17 18 18 18 19 19 20 20 21 21 21 21 22 23 23 24 25 26 26 26 27 27 28 29 29 30 31 31 32 32 33
Wind_Direction
234 232 232 236 238 242 246 250 254 258 261 264 267 269 268 268 272 279 288 294 301 307 311 314 320 324 326 327 330 333 334 333 332 330 330 329 327 324 321 316 312 308 301 299
236 234 231 233 236 239 243 247 252 256 260 263 267 269 268 269 272 277 286 290 295 299 302 306 311 314 317 320 322 324 327 328 329 326 324 325 325 322 318 314 309 306 303 299
236 235 233 233 235 238 242 246 251 255 260 262 265 269 268 268 270 276 281 285 291 294 297 301 306 307 309 313 313 315 318 320 320 322 320 319 320 318 317 315 310 308 305 303
236 234 235 237 237 239 242 245 249 253 258 262 264 266 267 269 272 274 277 281 287 289 292 296 301 302 303 305 308 309 311 312 313 316 316 314 314 314 314 314 315 313 308 301
236 237 238 238 238 240 242 245 249 254 258 261 262 264 266 268 270 272 274 276 280 283 286 288 292 296 297 300 302 304 304 306 308 310 312 310 309 309 309 309 310 311 310 308
237 238 239 241 242 243 246 248 250 253 257 260 260 261 264 265 266 269 272 275 277 279 281 282 286 290 294 295 296 298 300 302 304 304 306 307 306 305 303 304 305 307 307 307
236 240 242 243 245 246 248 250 252 255 257 260 260 261 261 262 262 265 268 272 273 276 277 277 281 285 290 291 291 294 295 297 298 299 300 301 301 301 299 299 299 300 301 302
236 239 242 244 247 248 251 252 253 255 257 259 259 260 260 261 261 262 264 267 269 272 276 277 279 282 284 287 288 291 293 293 293 296 297 297 297 298 297 296 296 297 297 299
237 240 243 245 248 250 251 254 255 256 258 258 257 258 259 260 260 261 263 266 268 269 273 276 279 281 283 286 289 289 292 292 293 293 295 295 293 293 293 294 294 295 296 298
239 240 242 245 247 250 252 254 256 257 258 259 258 258 259 261 261 262 264 265 266 268 271 273 275 278 280 285 288 288 289 290 291 292 293 293 291 290 291 292 293 292 294 295
240 242 243 245 247 249 252 254 257 258 259 259 259 258 259 260 260 261 262 263 265 267 268 269 271 276 280 284 286 286 288 290 292 291 295 295 293 291 291 293 293 291 292 293
240 242 244 246 247 249 251 253 254 256 257 257 258 259 260 260 260 260 261 263 264 266 266 267 269 274 279 282 285 286 288 290 291 291 291 293 292 291 291 292 292 291 293 294
240 242 244 246 247 248 249 250 253 254 256 257 257 258 260 260 260 261 260 262 263 264 266 268 271 274 276 280 283 286 287 289 291 291 290 290 291 291 290 291 291 291 292 293
241 242 244 246 247 248 248 250 251 253 253 255 256 258 259 260 260 261 263 264 265 265 267 269 271 275 278 281 284 285 286 287 289 289 290 289 291 291 290 291 291 290 290 292
241 243 245 246 247 248 249 250 251 253 254 255 256 258 259 260 261 263 265 267 267 268 268 270 272 275 277 279 282 283 284 285 287 288 288 289 290 290 291 291 290 290 289 290
240 242 245 247 248 249 250 251 252 253 254 255 255 256 257 258 261 263 266 269 270 270 271 273 274 275 278 279 280 281 282 284 285 286 286 287 288 289 290 290 290 290 290 290
241 243 244 246 248 249 251 252 252 253 254 255 256 255 256 259 262 264 267 270 270 272 274 276 276 278 279 280 280 281 282 283 284 285 285 286 287 288 289 290 290 289 290 290
242 244 245 247 248 250 252 253 253 255 256 256 258 259 260 261 264 265 268 270 272 274 276 276 278 279 279 279 280 280 281 283 283 284 285 285 286 287 287 288 288 288 289 289
244 246 248 250 251 251 252 254 256 257 258 258 263 265 264 266 266 266 268 270 273 275 275 275 277 279 278 279 280 280 281 282 283 284 285 285 286 285 286 287 287 288 289 289
245 246 248 250 251 252 253 255 257 259 260 262 264 264 264 267 268 268 269 270 273 275 276 278 278 278 278 278 278 279 281 282 283 284 285 285 285 285 285 286 287 287 288 288
246 247 249 251 252 253 254 255 257 258 260 262 263 265 265 266 267 269 270 272 274 276 277 278 278 277 278 279 279 279 281 282 283 283 284 284 285 285 286 286 286 287 287 288
247 248 249 251 252 253 254 255 256 258 260 262 264 265 266 267 268 268 270 272 274 275 275 276 278 278 279 280 280 280 281 281 282 283 284 285 286 286 287 288 287 288 288 288
249 249 250 251 252 254 255 257 258 259 260 261 262 263 264 265 266 267 269 271 272 272 273 274 276 277 278 278 279 280 281 283 284 285 286 286 287 288 288 289 289 289 289 289
251 250 249 250 253 254 255 257 259 259 259 259 260 262 263 263 264 265 266 268 269 270 272 273 275 276 277 279 280 282 284 285 286 287 287 288 289 289 290 290 291 291 291 291
253 251 252 252 252 252 254 256 257 258 258 258 259 260 262 263 264 266 267 267 269 271 273 275 277 278 280 282 283 284 285 286 287 288 289 289 290 290 291 291 292 292 292 293
255 252 250 249 250 252 254 255 257 257 257 259 261 262 263 264 264 264 266 268 271 273 275 276 277 279 281 283 285 286 287 290 290 290 291 291 291 291 292 293 294 294 294 294
251 248 250 250 251 252 251 251 252 255 257 259 262 263 263 263 262 264 267 269 272 274 276 278 280 281 283 285 287 289 291 293 293 292 291 292 292 293 294 294 295 296 296 296
Height
5871 5876 5878 5882 5885 5888 5890 5893 5895 5898 5900 5902 5902 5903 5905 5905 5906 5906 5906 5905 5905 5904 5903 5901 5900 5899 5897 5895 5894 5892 5890 5888 5886 5883 5881 5879 5876 5874 5872 5870 5868 5867 5865 5863
5864 5868 5871 5874 5878 5881 5884 5886 5889 5892 5894 5896 5897 5898 5899 5900 5901 5901 5902 5901 5901 5900 5899 5898 5897 5896 5894 5893 5891 5889 5887 5885 5883 5880 5878 5876 5873 5871 5869 5867 5864 5863 5861 5859
5856 5860 5863 5866 5871 5874 5877 5880 5883 5885 5889 5890 5892 5893 5894 5895 5896 5897 5897 5897 5897 5896 5895 5895 5894 5892 5891 5890 5888 5886 5884 5882 5879 5877 5874 5872 5870 5868 5865 5863 5860 5858 5857 5855
5848 5853 5855 5862 5865 5867 5870 5873 5876 5879 5882 5884 5886 5887 5888 5890 5891 5891 5892 5892 5892 5891 5891 5890 5889 5888 5887 5886 5884 5882 5880 5878 5875 5873 5871 5868 5866 5864 5861 5859 5857 5854 5852 5850
5839 5843 5847 5853 5857 5860 5863 5866 5869 5872 5874 5877 5879 5880 5882 5884 5884 5885 5886 5886 5886 5886 5886 5885 5884 5883 5882 5880 5879 5877 5875 5873 5871 5869 5866 5863 5861 5859 5857 5855 5853 5850 5848 5845
5830 5835 5839 5845 5849 5852 5857 5858 5862 5864 5866 5869 5871 5873 5876 5877 5877 5878 5879 5879 5880 5880 5879 5879 5878 5877 5876 5874 5873 5871 5869 5867 5865 5863 5861 5858 5856 5854 5852 5850 5847 5845 5843 5841
5822 5826 5831 5836 5840 5844 5849 5851 5853 5855 5858 5860 5863 5865 5867 5868 5870 5871 5872 5872 5873 5873 5872 5872 5871 5870 5869 5867 5866 5864 5862 5860 5858 5856 5854 5852 5850 5847 5845 5843 5841 5839 5837 5835
5813 5818 5824 5827 5831 5835 5838 5841 5843 5846 5849 5851 5854 5856 5858 5860 5861 5862 5863 5864 5864 5865 5865 5863 5862 5861 5861 5859 5858 5856 5854 5852 5850 5848 5847 5844 5842 5840 5837 5836 5834 5832 5831 5829
5804 5810 5813 5817 5821 5824 5828 5831 5834 5837 5839 5842 5844 5847 5848 5850 5852 5853 5854 5855 5856 5856 5856 5855 5854 5853 5852 5851 5849 5848 5846 5844 5841 5839 5838 5836 5834 5832 5829 5828 5826 5825 5823 5821
5793 5797 5802 5807 5811 5815 5818 5821 5824 5827 5830 5832 5835 5837 5839 5840 5842 5843 5844 5845 5846 5847 5847 5846 5845 5844 5843 5842 5841 5838 5836 5835 5833 5831 5828 5826 5824 5822 5821 5819 5818 5816 5815 5813
5782 5787 5792 5796 5801 5804 5808 5811 5814 5817 5819 5822 5824 5826 5828 5829 5831 5832 5833 5834 5835 5835 5835 5835 5835 5834 5833 5831 5830 5828 5826 5825 5823 5821 5819 5817 5815 5813 5812 5811 5809 5808 5806 5804
5771 5776 5781 5785 5789 5793 5797 5801 5804 5806 5808 5811 5813 5815 5817 5818 5820 5821 5822 5823 5823 5824 5823 5823 5823 5823 5823 5821 5820 5818 5816 5815 5813 5811 5809 5807 5806 5804 5803 5801 5800 5798 5796 5794
5761 5765 5770 5774 5779 5782 5786 5790 5793 5795 5797 5800 5802 5804 5805 5807 5809 5810 5811 5812 5813 5813 5813 5813 5812 5812 5812 5810 5809 5807 5805 5804 5803 5801 5799 5797 5796 5795 5793 5792 5790 5788 5786 5784
5750 5755 5759 5763 5768 5772 5775 5778 5781 5784 5786 5789 5791 5793 5794 5796 5798 5799 5800 5801 5802 5802 5802 5801 5802 5802 5801 5799 5798 5797 5795 5794 5793 5791 5789 5788 5786 5784 5783 5781 5780 5778 5776 5773
5740 5745 5749 5753 5757 5761 5764 5767 5770 5773 5776 5778 5781 5782 5784 5786 5787 5788 5789 5790 5790 5791 5791 5791 5790 5790 5790 5789 5788 5786 5785 5784 5782 5781 5779 5778 5776 5774 5773 5771 5769 5767 5765 5762
5732 5736 5740 5744 5747 5751 5754 5757 5760 5763 5766 5768 5770 5772 5773 5775 5776 5777 5778 5779 5779 5780 5780 5780 5779 5779 5779 5778 5777 5776 5775 5773 5772 5770 5769 5767 5765 5764 5762 5760 5758 5756 5754 5751
5724 5728 5731 5734 5738 5741 5744 5746 5750 5753 5755 5758 5759 5761 5762 5764 5765 5766 5767 5768 5768 5769 5769 5769 5769 5768 5768 5767 5766 5765 5764 5762 5761 5759 5758 5756 5755 5753 5751 5749 5747 5745 5743 5741
5715 5719 5722 5725 5728 5731 5734 5737 5740 5743 5745 5748 5749 5750 5752 5753 5754 5755 5756 5757 5758 5758 5758 5757 5757 5757 5756 5756 5755 5754 5753 5751 5750 5748 5746 5745 5743 5742 5740 5738 5736 5734 5732 5730
5707 5710 5713 5716 5719 5722 5725 5728 5730 5733 5735 5737 5739 5740 5741 5742 5743 5744 5745 5746 5747 5747 5747 5746 5746 5746 5746 5745 5744 5743 5742 5740 5739 5737 5735 5734 5732 5730 5728 5726 5724 5722 5720 5718
5699 5702 5705 5708 5710 5714 5716 5719 5721 5723 5725 5727 5728 5730 5731 5732 5733 5734 5734 5735 5736 5736 5736 5735 5735 5735 5734 5733 5733 5732 5731 5729 5727 5726 5724 5722 5721 5719 5717 5715 5713 5711 5709 5706
5693 5695 5697 5700 5702 5705 5707 5709 5711 5713 5715 5717 5718 5720 5721 5722 5723 5724 5724 5725 5726 5725 5725 5725 5725 5724 5723 5723 5722 5721 5719 5718 5716 5715 5713 5711 5709 5708 5706 5704 5702 5699 5697 5695
5686 5688 5690 5692 5694 5696 5698 5700 5702 5704 5706 5707 5709 5710 5711 5712 5713 5714 5715 5716 5716 5716 5716 5715 5715 5714 5713 5712 5711 5710 5709 5707 5706 5704 5702 5700 5698 5696 5695 5692 5690 5688 5686 5684
5680 5681 5683 5685 5687 5689 5690 5692 5694 5696 5697 5699 5700 5701 5702 5703 5704 5705 5706 5706 5707 5707 5707 5706 5706 5705 5704 5703 5702 5701 5699 5697 5696 5694 5692 5690 5688 5686 5684 5682 5680 5678 5675 5673
5674 5676 5677 5679 5680 5682 5684 5685 5687 5688 5690 5691 5692 5693 5694 5696 5696 5697 5697 5698 5698 5698 5698 5697 5696 5696 5695 5694 5693 5692 5690 5688 5687 5684 5682 5680 5678 5676 5674 5672 5670 5667 5665 5662
5670 5671 5672 5673 5674 5676 5677 5678 5680 5681 5683 5684 5685 5686 5687 5688 5689 5689 5689 5689 5689 5689 5689 5688 5688 5687 5686 5685 5684 5683 5681 5679 5677 5676 5673 5671 5669 5667 5664 5662 5660 5657 5654 5652
5666 5666 5667 5668 5670 5671 5672 5673 5674 5675 5677 5678 5679 5680 5681 5681 5682 5682 5682 5682 5682 5681 5681 5680 5680 5679 5678 5677 5676 5674 5673 5670 5668 5666 5664 5662 5660 5658 5655 5653 5650 5647 5644 5642
5663 5663 5664 5665 5666 5667 5668 5669 5670 5671 5672 5673 5674 5674 5675 5675 5676 5676 5676 5675 5675 5675 5674 5673 5672 5672 5670 5669 5668 5666 5664 5662 5660 5658 5655 5653 5651 5648 5646 5643 5640 5638 5635 5632